EW3721 Weather Reports


Display with metric or nautical units.
time (UTC)temp
F
wind
direction
speed
MPH
gust
MPH
rain 1hr
in
rain 24hr
in
rain mn
in
humidity
%
barometer
mb
20260509115107 49 152 0.0 2.0 0.00 0.00 0.00 94 1014.1
20260509114607 49 152 2.0 3.0 0.00 0.00 0.00 94 1014.2
20260509114107 49 150 0.0 2.0 0.00 0.00 0.00 94 1014.3
20260509113606 49 342 1.0 3.0 0.00 0.00 0.00 94 1014.2
20260509113107 49 246 0.0 0.0 0.00 0.00 0.00 94 1014.1
20260509112607 49 247 0.0 1.0 0.00 0.00 0.00 94 1014.1
20260509112107 49 247 0.0 1.0 0.00 0.00 0.00 95 1014.1
20260509111607 49 246 0.0 1.0 0.00 0.00 0.00 95 1013.9
20260509110607 49 244 0.0 1.0 0.00 0.00 0.00 94 1013.9
20260509110107 49 244 0.0 2.0 0.00 0.00 0.00 94 1013.8
20260509105607 48 251 1.0 2.0 0.00 0.00 0.00 94 1013.7
20260509105107 48 143 0.0 1.0 0.00 0.00 0.00 94 1013.5
20260509104606 48 143 0.0 1.0 0.00 0.00 0.00 94 1013.6
20260509104109 48 143 1.0 3.0 0.00 0.00 0.00 94 1013.6
20260509103607 48 225 0.0 2.0 0.00 0.00 0.00 94 1013.5
20260509102107 48 225 0.0 1.0 0.00 0.00 0.00 94 1013.6
20260509101607 48 225 0.0 2.0 0.00 0.00 0.00 94 1013.7
20260509101107 48 225 0.0 1.0 0.00 0.00 0.00 93 1013.7
20260509100607 48 225 0.0 1.0 0.00 0.00 0.00 93 1013.7
20260509100107 48 225 0.0 0.0 0.00 0.00 0.00 93 1013.7
20260509095607 48 225 0.0 0.0 0.00 0.00 0.00 93 1013.6
20260509095107 48 225 0.0 1.0 0.00 0.00 0.00 93 1013.5
20260509094607 48 225 0.0 2.0 0.00 0.00 0.00 93 1013.6
20260509094107 48 225 0.0 1.0 0.00 0.00 0.00 93 1013.6
20260509093607 48 225 0.0 0.0 0.00 0.00 0.00 93 1013.6
20260509093107 48 225 0.0 0.0 0.00 0.00 0.00 93 1013.4
20260509092607 48 225 0.0 0.0 0.00 0.00 0.00 93 1013.5
20260509092107 48 225 0.0 1.0 0.00 0.00 0.00 93 1013.6
20260509091606 48 225 1.0 2.0 0.00 0.00 0.00 92 1013.7
20260509091107 48 225 0.0 1.0 0.00 0.00 0.00 92 1013.6
20260509090607 48 225 0.0 1.0 0.00 0.00 0.00 92 1013.7
20260509090106 48 225 0.0 0.0 0.00 0.00 0.00 92 1013.6
20260509085607 48 225 0.0 1.0 0.00 0.00 0.00 92 1013.7
20260509085107 48 225 0.0 1.0 0.00 0.00 0.00 92 1013.7
20260509084606 48 225 0.0 1.0 0.00 0.00 0.00 92 1013.7
20260509084107 48 225 0.0 1.0 0.00 0.00 0.00 92 1013.6
20260509083607 48 225 1.0 2.0 0.00 0.00 0.00 92 1013.6
20260509083107 48 225 0.0 1.0 0.00 0.00 0.00 91 1013.6
20260509081607 48 225 0.0 1.0 0.00 0.00 0.00 91 1013.6
20260509081106 48 225 1.0 2.0 0.00 0.00 0.00 91 1013.7
20260509080607 48 225 0.0 1.0 0.00 0.00 0.00 91 1013.8
20260509075607 48 225 0.0 0.0 0.00 0.00 0.00 90 1013.7
20260509075106 48 225 0.0 0.0 0.00 0.00 0.00 90 1013.6
20260509074607 48 225 0.0 0.0 0.00 0.00 0.00 90 1013.6
20260509074107 48 225 0.0 0.0 0.00 0.00 0.00 90 1013.6
20260509073607 48 225 0.0 0.0 0.00 0.00 0.00 90 1013.4
20260509073107 48 225 0.0 0.0 0.00 0.00 0.00 89 1013.3
20260509072107 48 225 0.0 0.0 0.00 0.00 0.00 89 1013.2
20260509071606 48 225 0.0 0.0 0.00 0.00 0.00 89 1013.2
20260509071106 48 225 0.0 0.0 0.00 0.00 0.00 89 1013.1
20260509070606 48 225 0.0 0.0 0.00 0.00 0.00 89 1013.2
20260509070107 48 225 0.0 0.0 0.00 0.00 0.00 89 1013.2
20260509065607 48 225 0.0 0.0 0.00 0.00 0.00 89 1013.2
20260509065106 48 225 0.0 0.0 0.00 0.00 0.00 89 1013.3
20260509064607 48 225 0.0 0.0 0.00 0.00 0.00 89 1013.3
20260509064106 48 225 0.0 0.0 0.00 0.00 0.00 89 1013.3
20260509063106 48 225 0.0 0.0 0.00 0.00 0.00 89 1013.6
20260509062606 48 225 0.0 0.0 0.00 0.00 0.00 89 1013.6
20260509062107 48 225 0.0 0.0 0.00 0.00 0.00 88 1013.6
20260509061607 48 225 0.0 0.0 0.00 0.00 0.00 88 1013.8
20260509061106 48 225 0.0 0.0 0.00 0.00 0.00 88 1013.9
20260509060606 48 225 0.0 1.0 0.00 0.00 0.00 88 1013.9
20260509060106 48 225 0.0 0.0 0.00 0.00 0.00 88 1013.9
20260509055606 48 225 0.0 0.0 0.00 0.00 0.00 88 1013.9
20260509055106 48 225 0.0 0.0 0.00 0.00 0.00 87 1013.9
20260509054606 48 225 0.0 0.0 0.00 0.00 0.00 87 1013.8
20260509054106 48 225 0.0 0.0 0.00 0.00 0.00 87 1013.8
20260509053607 48 225 0.0 0.0 0.00 0.00 0.00 87 1013.9
20260509053106 48 225 0.0 0.0 0.00 0.00 0.00 87 1013.9
20260509052606 48 225 0.0 0.0 0.00 0.00 0.00 87 1013.8
20260509052106 48 225 0.0 0.0 0.00 0.00 0.00 87 1013.8
20260509051107 48 225 1.0 2.0 0.00 0.00 0.00 87 1013.9
20260509050606 48 225 0.0 0.0 0.00 0.00 0.00 87 1014.0
20260509050106 48 225 0.0 0.0 0.00 0.00 0.00 87 1013.9
20260509045606 48 225 0.0 0.0 0.00 0.00 0.00 87 1013.9
20260509045106 48 225 0.0 0.0 0.00 0.00 0.00 87 1014.0
20260509044606 47 225 0.0 0.0 0.00 0.00 0.00 87 1013.9
20260509043106 47 225 0.0 0.0 0.00 0.00 0.00 88 1014.0
20260509042606 47 225 1.0 1.0 0.00 0.00 0.00 88 1014.1
20260509041606 47 225 0.0 0.0 0.00 0.00 0.00 87 1014.1
20260509041106 47 225 0.0 1.0 0.00 0.00 0.00 87 1014.2
20260509040606 47 225 0.0 0.0 0.00 0.00 0.00 87 1014.1
20260509040106 47 225 0.0 0.0 0.00 0.00 0.00 87 1014.0
20260509035606 47 225 0.0 0.0 0.00 0.00 0.00 87 1014.0
20260509034606 47 225 0.0 0.0 0.00 0.00 0.00 87 1014.0
20260509034106 46 225 0.0 0.0 0.00 0.00 0.00 87 1013.9
20260509033606 46 225 0.0 0.0 0.00 0.00 0.00 87 1013.9
20260509032607 46 225 0.0 0.0 0.00 0.00 0.00 87 1013.8
20260509032106 46 225 0.0 0.0 0.00 0.00 0.00 87 1013.6
20260509031106 46 225 0.0 0.0 0.00 0.00 0.00 87 1013.7
20260509030606 46 225 0.0 0.0 0.00 0.00 0.00 87 1013.8
20260509030106 46 225 1.0 1.0 0.00 0.00 0.00 87 1013.7
20260509025607 45 225 0.0 0.0 0.00 0.00 0.00 86 1013.7
20260509025106 45 225 0.0 0.0 0.00 0.00 0.00 85 1013.6
20260509024606 45 225 0.0 0.0 0.00 0.00 0.00 85 1013.6
20260509024106 45 225 0.0 0.0 0.00 0.00 0.00 84 1013.5
20260509023106 45 225 0.0 0.0 0.00 0.00 0.00 83 1013.5
20260509021606 45 225 0.0 0.0 0.00 0.00 0.00 81 1013.4
20260509020606 46 225 0.0 0.0 0.00 0.00 0.00 81 1013.4
20260509020108 46 225 0.0 0.0 0.00 0.00 0.00 79 1013.4
20260509015107 46 225 0.0 0.0 0.00 0.00 0.00 78 1013.4
20260509014607 46 225 0.0 0.0 0.00 0.00 0.00 77 1013.4
20260509014107 47 225 0.0 0.0 0.00 0.00 0.00 77 1013.3
20260509013606 47 225 0.0 0.0 0.00 0.00 0.00 77 1013.2
20260509013106 47 225 0.0 0.0 0.00 0.00 0.00 76 1013.2
20260509012606 48 225 0.0 0.0 0.00 0.00 0.00 75 1013.2
20260509012106 48 225 0.0 0.0 0.00 0.00 0.00 74 1013.1
20260509011606 49 225 0.0 0.0 0.00 0.00 0.00 73 1013.1
20260509011106 49 225 0.0 0.0 0.00 0.00 0.00 73 1012.9
20260509005606 50 225 0.0 0.0 0.00 0.00 0.00 71 1012.6
20260509005106 51 225 0.0 0.0 0.00 0.00 0.00 70 1012.6
20260509004606 51 225 0.0 0.0 0.00 0.00 0.00 69 1012.5
20260509004106 52 225 0.0 0.0 0.00 0.00 0.00 68 1012.3
20260509003606 52 225 0.0 0.0 0.00 0.00 0.00 68 1012.1
20260509001606 53 226 0.0 0.0 0.00 0.00 0.00 66 1012.1
20260509001106 54 225 0.0 1.0 0.00 0.00 0.00 66 1012.1
20260509000606 54 225 0.0 1.0 0.00 0.00 0.00 65 1012.0
20260509000106 54 225 0.0 1.0 0.00 0.00 0.00 64 1012.0
20260508235606 54 225 0.0 0.0 0.00 0.00 0.00 61 1011.9
20260508235106 55 225 0.0 0.0 0.00 0.00 0.00 61 1011.9
20260508234606 55 225 0.0 1.0 0.00 0.00 0.00 59 1011.8
20260508234107 55 226 0.0 1.0 0.00 0.00 0.00 59 1011.7
20260508233606 56 223 0.0 0.0 0.00 0.00 0.00 59 1011.6
20260508233105 56 223 1.0 3.0 0.00 0.00 0.00 58 1011.6
20260508232608 56 237 0.0 1.0 0.00 0.00 0.00 58 1011.5
20260508232108 56 237 0.0 2.0 0.00 0.00 0.00 56 1011.4
20260508231606 57 237 0.0 1.0 0.00 0.00 0.00 57 1011.3
20260508231106 57 275 0.0 3.0 0.00 0.00 0.00 55 1011.3
20260508230606 57 233 1.0 3.0 0.00 0.00 0.00 56 1011.3
20260508225606 57 230 2.0 7.0 0.00 0.00 0.00 56 1011.2
20260508225106 57 148 1.0 3.0 0.00 0.00 0.00 56 1011.1
20260508224606 57 218 2.0 5.0 0.00 0.00 0.00 56 1010.9
20260508224106 57 244 1.0 3.0 0.00 0.00 0.00 57 1010.9
20260508223606 58 188 1.0 3.0 0.00 0.00 0.00 55 1010.9
20260508222606 58 223 1.0 3.0 0.00 0.00 0.00 54 1010.9
20260508222106 58 229 0.0 3.0 0.00 0.00 0.00 56 1011.0
20260508221606 58 142 1.0 2.0 0.00 0.00 0.00 55 1011.1
20260508221106 58 142 0.0 3.0 0.00 0.00 0.00 53 1011.1
20260508220606 59 201 2.0 5.0 0.00 0.00 0.00 52 1011.2
20260508220106 59 241 3.0 6.0 0.00 0.00 0.00 52 1011.2
20260508215605 59 207 2.0 5.0 0.00 0.00 0.00 52 1011.1
20260508215106 59 187 3.0 8.0 0.00 0.00 0.00 51 1011.1
20260508214606 59 220 2.0 7.0 0.00 0.00 0.00 51 1011.2
20260508214106 60 267 1.0 3.0 0.00 0.00 0.00 51 1011.2
20260508213606 60 202 2.0 10.0 0.00 0.00 0.00 51 1011.2
20260508213106 60 171 1.0 3.0 0.00 0.00 0.00 52 1011.2
20260508212606 60 196 1.0 5.0 0.00 0.00 0.00 52 1011.2
20260508212106 60 198 1.0 7.0 0.00 0.00 0.00 54 1011.2
20260508211606 60 176 2.0 5.0 0.00 0.00 0.00 52 1011.1
20260508211106 60 221 1.0 2.0 0.00 0.00 0.00 54 1011.0
20260508210606 60 222 3.0 10.0 0.00 0.00 0.00 52 1011.0
20260508210106 60 235 2.0 5.0 0.00 0.00 0.00 54 1011.1
20260508205606 59 182 1.0 7.0 0.00 0.00 0.00 56 1011.2
20260508205106 59 203 3.0 6.0 0.00 0.00 0.00 56 1011.2
20260508204606 59 236 2.0 6.0 0.00 0.00 0.00 55 1011.1
20260508204106 59 177 3.0 9.0 0.00 0.00 0.00 55 1011.1
20260508203606 58 165 2.0 5.0 0.00 0.00 0.00 59 1011.1
20260508203106 58 173 2.0 5.0 0.00 0.00 0.00 60 1011.2
20260508202106 58 148 3.0 9.0 0.00 0.00 0.00 58 1011.2
20260508201606 58 226 5.0 10.0 0.00 0.00 0.00 57 1011.3
20260508201106 58 209 3.0 12.0 0.00 0.00 0.00 57 1011.4
20260508200605 58 169 3.0 6.0 0.00 0.00 0.00 58 1011.4
20260508200106 57 188 3.0 7.0 0.00 0.00 0.00 56 1011.3
20260508195606 57 179 2.0 10.0 0.00 0.00 0.00 60 1011.4
20260508195106 57 212 3.0 7.0 0.00 0.00 0.00 57 1011.3
20260508194606 57 207 3.0 12.0 0.00 0.00 0.00 56 1011.4
20260508194105 57 221 3.0 10.0 0.00 0.00 0.00 57 1011.5
20260508193606 58 158 4.0 12.0 0.00 0.00 0.00 54 1011.4
20260508193106 59 139 5.0 15.0 0.00 0.00 0.00 53 1011.3
20260508192606 59 155 5.0 14.0 0.00 0.00 0.00 53 1011.3
20260508192105 59 144 3.0 12.0 0.00 0.00 0.00 49 1011.1
20260508191606 60 232 2.0 15.0 0.00 0.00 0.00 47 1011.3
20260508191105 60 199 7.0 18.0 0.00 0.00 0.00 45 1011.0
20260508190606 61 193 3.0 9.0 0.00 0.00 0.00 46 1010.6
20260508190106 62 231 5.0 8.0 0.00 0.00 0.00 43 1010.5
20260508185606 63 194 5.0 9.0 0.00 0.00 0.00 43 1010.4
20260508185105 63 170 5.0 12.0 0.00 0.00 0.00 45 1010.2
20260508184606 63 242 3.0 10.0 0.00 0.00 0.00 43 1010.2
20260508184106 63 173 1.0 5.0 0.00 0.00 0.00 49 1010.3
20260508183106 62 174 1.0 5.0 0.00 0.00 0.00 47 1010.5
20260508182605 61 232 3.0 10.0 0.00 0.00 0.00 46 1010.7
20260508182105 61 218 3.0 9.0 0.00 0.00 0.00 51 1010.7
20260508181606 60 223 3.0 6.0 0.00 0.00 0.00 51 1010.9
20260508181106 59 155 1.0 6.0 0.00 0.00 0.00 50 1010.9
20260508180606 59 183 1.0 5.0 0.00 0.00 0.00 48 1011.1
20260508180106 60 165 1.0 8.0 0.00 0.00 0.00 44 1011.1
20260508175606 60 223 2.0 3.0 0.00 0.00 0.00 46 1010.9
20260508175105 60 201 2.0 6.0 0.00 0.00 0.00 46 1010.9
20260508174605 60 192 3.0 8.0 0.00 0.00 0.00 43 1010.9
20260508173605 61 213 5.0 14.0 0.00 0.00 0.00 41 1010.8
20260508173105 61 193 5.0 14.0 0.00 0.00 0.00 42 1010.8
20260508172109 60 193 2.0 6.0 0.00 0.00 0.00 46 1010.8
20260508171106 60 182 2.0 14.0 0.00 0.00 0.00 42 1010.9
20260508170605 60 170 3.0 12.0 0.00 0.00 0.00 41 1010.9
20260508170106 61 150 1.0 5.0 0.00 0.00 0.00 44 1010.9
20260508165605 61 216 4.0 13.0 0.00 0.00 0.00 43 1010.8
20260508164605 62 241 1.0 9.0 0.00 0.00 0.00 41 1010.8
20260508164105 62 208 2.0 8.0 0.00 0.00 0.00 41 1010.8
20260508163606 63 204 2.0 5.0 0.00 0.00 0.00 44 1010.8
20260508163105 62 218 5.0 13.0 0.00 0.00 0.00 44 1010.8
20260508162605 62 165 2.0 5.0 0.00 0.00 0.00 40 1010.8
20260508162105 62 190 2.0 8.0 0.00 0.00 0.00 40 1010.9
20260508161105 62 207 2.0 5.0 0.00 0.00 0.00 45 1010.9
20260508160606 61 227 3.0 6.0 0.00 0.00 0.00 40 1011.0
20260508160106 62 138 5.0 13.0 0.00 0.00 0.00 39 1011.2
20260508155606 62 225 4.0 10.0 0.00 0.00 0.00 39 1011.1
20260508155105 62 230 2.0 10.0 0.00 0.00 0.00 41 1011.0
20260508154606 62 168 3.0 14.0 0.00 0.00 0.00 41 1011.1
20260508154105 62 161 5.0 14.0 0.00 0.00 0.00 41 1011.0
20260508153605 62 175 3.0 12.0 0.00 0.00 0.00 45 1011.2
20260508153106 62 164 2.0 7.0 0.00 0.00 0.00 40 1011.1
20260508152605 63 208 3.0 7.0 0.00 0.00 0.00 43 1011.2
20260508151606 62 195 2.0 9.0 0.00 0.00 0.00 44 1011.2
20260508151105 63 202 3.0 9.0 0.00 0.00 0.00 45 1011.3
20260508150605 62 209 2.0 5.0 0.00 0.00 0.00 52 1011.2
20260508150106 62 184 2.0 9.0 0.00 0.00 0.00 46 1011.3
20260508145606 62 193 2.0 6.0 0.00 0.00 0.00 47 1011.3
20260508145106 61 215 3.0 7.0 0.00 0.00 0.00 46 1011.3
20260508144605 61 210 2.0 5.0 0.00 0.00 0.00 46 1011.3
20260508144105 61 237 3.0 5.0 0.00 0.00 0.00 49 1011.3
20260508143106 61 157 1.0 5.0 0.00 0.00 0.00 48 1011.4
20260508142605 61 168 3.0 9.0 0.00 0.00 0.00 45 1011.4
20260508142105 61 145 2.0 7.0 0.00 0.00 0.00 46 1011.5
20260508141105 60 213 2.0 5.0 0.00 0.00 0.00 47 1011.6
20260508140606 60 216 2.0 5.0 0.00 0.00 0.00 47 1011.6
20260508140105 60 143 2.0 3.0 0.00 0.00 0.00 53 1011.6
20260508135605 60 188 2.0 7.0 0.00 0.00 0.00 51 1011.6
20260508135106 59 206 2.0 6.0 0.00 0.00 0.00 47 1011.6
20260508134106 59 209 4.0 10.0 0.00 0.00 0.00 51 1011.8
20260508133605 58 209 2.0 6.0 0.00 0.00 0.00 50 1011.8
20260508133106 58 177 2.0 7.0 0.00 0.00 0.00 51 1011.9
20260508132105 58 188 3.0 5.0 0.00 0.00 0.00 52 1012.0
20260508131605 57 169 2.0 5.0 0.00 0.00 0.00 52 1012.0
20260508131105 57 266 2.0 5.0 0.00 0.00 0.00 54 1012.1
20260508130605 57 233 1.0 6.0 0.00 0.00 0.00 58 1012.1
20260508130106 56 230 5.0 8.0 0.00 0.00 0.00 55 1012.1
20260508125605 56 211 2.0 6.0 0.00 0.00 0.00 56 1012.0
20260508125105 55 143 2.0 3.0 0.00 0.00 0.00 59 1012.0
20260508124105 55 216 2.0 6.0 0.00 0.00 0.00 58 1012.1
20260508123606 54 205 2.0 3.0 0.00 0.00 0.00 60 1012.1
20260508123106 54 238 1.0 3.0 0.00 0.00 0.00 62 1012.1
20260508122605 54 214 3.0 10.0 0.00 0.00 0.00 62 1012.1
20260508122105 53 143 1.0 3.0 0.00 0.00 0.00 62 1012.1
20260508121606 53 158 3.0 5.0 0.00 0.00 0.00 63 1012.1
20260508121105 53 209 2.0 5.0 0.00 0.00 0.00 63 1012.1
20260508120106 52 115 2.0 7.0 0.00 0.00 0.00 66 1012.1
20260508115605 52 136 1.0 3.0 0.00 0.00 0.00 68 1012.1